Location: Fontevrault
(47.1823°N, 0.0493°E)
Time: 18:22:58
(UTC+00:00)

Cosmos 1725 Rocket - Pass Details

Date: 30 October 2021
Orbit: 961 x 991 km, 82.9° (Epoch: 27 November)

Event Time Altitude Azimuth Distance (km) Brightness Sun altitude
Rises 18:20:05 0° 156° (SSE) 3,656 6.8 -16.4°
Reaches altitude 10° 18:22:50 10° 147° (SSE) 2,709 6.0 -16.9°
Maximum altitude 18:28:13 32° 86° (E) 1,587 4.5 -17.8°
Drops below altitude 10° 18:33:36 10° 26° (NNE) 2,711 6.1 -18.7°
Sets 18:36:21 0° 17° (NNE) 3,660 6.8 -19.2°
